Belmar-Farmingdale, NJ

7:25 AM EDT on October 18, 2017 (GMT -0400)
Allaire

Weather History for KBLM - December, 2012

Change the Weather History Date:

Friday, December 21, 2012

  Actual Average Record
Temperature  
Mean Temperature 45 °F -  
Max Temperature 55 °F 40 °F 68 °F (2013)
Min Temperature 35 °F 27 °F 10 °F (2004)
Degree Days  
Heating Degree Days 20    
Moisture  
Dew Point 28 °F    
Average Humidity 52    
Maximum Humidity 82    
Minimum Humidity 33    
Precipitation  
Precipitation 0.38 in - - ()
Sea Level Pressure  
Sea Level Pressure 29.33 in    
Wind  
Wind Speed 18 mph (SW)    
Max Wind Speed 30 mph    
Max Gust Speed 48 mph    
Visibility 9 miles    
Events      
Averages and records for this station are not official NWS values.
T = Trace of Precipitation, MM = Missing Value Source: NWS Daily Summary

Daily Weather History Graph

Daily Weather History Graph

Search for Another Location

Airport or City:

Trip Planner

Search our weather history database for the weather conditions in past years. The results will help you decide how hot, cold, wet, or windy it might be!

Date:

Astronomy

Dec. 21, 2012 Rise Set
Actual Time 7:15 AM EST 4:34 PM EST
Civil Twilight 6:44 AM EST 5:04 PM EST
Nautical Twilight 6:10 AM EST 5:39 PM EST
Astronomical Twilight 5:37 AM EST 6:12 PM EST
Moon 12:20 PM EST (12/21) 12:59 AM EST (12/21)
Length of Visible Light 10h 19m
Length of Day
9h 18m
Waxing Gibbous, 64% of the Moon is Illuminated
Dec 21
Waxing Gibbous
Dec 28
Full
Jan 4
Last Quarter
Jan 11
New
Jan 18
First Quarter

Hourly Weather History & Observations

Time (EST) Temp. Windchill Dew Point Humidity Pressure Visibility Wind Dir Wind Speed Gust Speed Precip Events Conditions
12:15 AM 50.0 °F - 44.6 °F 82% 29.72 in 10.0 mi ESE 18.4 mph 26.5 mph N/A   Overcast
12:35 AM 51.8 °F - 35.6 °F 54% 29.69 in 10.0 mi ESE 18.4 mph 26.5 mph N/A   Overcast
12:55 AM 51.8 °F - 35.6 °F 54% 29.66 in 10.0 mi ESE 23.0 mph 29.9 mph N/A   Overcast
1:15 AM 51.8 °F - 37.4 °F 58% 29.66 in 10.0 mi ESE 18.4 mph 25.3 mph N/A   Overcast
1:55 AM 51.8 °F - 39.2 °F 62% 29.60 in 8.0 mi ESE 20.7 mph 32.2 mph 0.04 in   Overcast
2:15 AM 51.8 °F - 39.2 °F 62% 29.58 in 8.0 mi ESE 19.6 mph 32.2 mph 0.03 in   Overcast
2:35 AM 51.8 °F - 46.4 °F 82% 29.56 in 5.0 mi ESE 23.0 mph 31.1 mph 0.05 in   Overcast
2:55 AM 51.8 °F - 41.0 °F 67% 29.52 in 6.0 mi ESE 19.6 mph 28.8 mph 0.07 in   Overcast
3:15 AM 51.8 °F - 42.8 °F 71% 29.50 in 7.0 mi SE 18.4 mph 33.4 mph 0.04 in   Overcast
3:35 AM 53.6 °F - 44.6 °F 72% 29.45 in 5.0 mi ESE 20.7 mph 33.4 mph 0.05 in   Overcast
3:55 AM 53.6 °F - 44.6 °F 72% 29.41 in 5.0 mi SE 19.6 mph 34.5 mph 0.06 in   Overcast
4:15 AM 53.6 °F - 46.4 °F 77% 29.40 in 5.0 mi SE 23.0 mph 31.1 mph 0.02 in   Overcast
4:35 AM 53.6 °F - 44.6 °F 72% 29.37 in 5.0 mi SE 21.9 mph 34.5 mph 0.03 in   Overcast
4:55 AM 53.6 °F - 44.6 °F 72% 29.33 in 5.0 mi SE 23.0 mph 35.7 mph 0.04 in   Overcast
5:15 AM 55.4 °F - 46.4 °F 72% 29.30 in 5.0 mi SE 23.0 mph 39.1 mph 0.02 in   Overcast
5:35 AM 55.4 °F - 44.6 °F 67% 29.28 in 6.0 mi SE 23.0 mph 40.3 mph 0.02 in   Overcast
5:55 AM 55.4 °F - 44.6 °F 67% 29.26 in 5.0 mi SE 23.0 mph 40.3 mph 0.04 in   Overcast
6:15 AM 55.4 °F - 48.2 °F 77% 29.23 in 5.0 mi SE 27.6 mph 46.0 mph 0.03 in   Overcast
6:35 AM 55.4 °F - 46.4 °F 72% 29.20 in 3.0 mi SE 27.6 mph 46.0 mph 0.05 in   Overcast
6:55 AM 55.4 °F - 46.4 °F 72% 29.17 in 3.0 mi SE 26.5 mph 42.6 mph 0.07 in   Overcast
7:15 AM 55.4 °F - 46.4 °F 72% 29.16 in 4.0 mi SE 29.9 mph 42.6 mph 0.05 in   Overcast
7:35 AM 55.4 °F - 48.2 °F 77% 29.16 in 7.0 mi SSE 20.7 mph 48.3 mph 0.06 in   Overcast
7:55 AM 55.4 °F - 48.2 °F 77% 29.15 in 4.0 mi South 23.0 mph 39.1 mph 0.06 in   Overcast
8:15 AM 55.4 °F - 48.2 °F 77% 29.15 in 5.0 mi South 12.7 mph 23.0 mph N/A   Overcast
8:35 AM 55.4 °F - 48.2 °F 77% 29.15 in 8.0 mi SW 17.3 mph 23.0 mph N/A   Overcast
8:55 AM 53.6 °F - 42.8 °F 67% 29.17 in 10.0 mi West 15.0 mph 26.5 mph N/A   Overcast
9:15 AM 51.8 °F - 39.2 °F 62% 29.19 in 10.0 mi West 18.4 mph 26.5 mph N/A   Overcast
9:35 AM 48.2 °F - 37.4 °F 66% 29.21 in 10.0 mi West 19.6 mph 26.5 mph N/A   Overcast
9:55 AM 46.4 °F 40.1 °F 35.6 °F 66% 29.21 in 10.0 mi West 15.0 mph 21.9 mph N/A   Overcast
10:15 AM 46.4 °F 40.4 °F 30.2 °F 53% 29.23 in 10.0 mi West 13.8 mph 28.8 mph N/A   Overcast
10:35 AM 44.6 °F 36.9 °F 28.4 °F 53% 29.24 in 10.0 mi West 18.4 mph 28.8 mph N/A   Overcast
10:55 AM 46.4 °F 39.8 °F 26.6 °F 46% 29.23 in 10.0 mi West 16.1 mph 29.9 mph N/A   Overcast
11:15 AM 44.6 °F 37.2 °F 26.6 °F 49% 29.23 in 10.0 mi West 17.3 mph 23.0 mph N/A   Overcast
11:35 AM 44.6 °F 37.4 °F 26.6 °F 49% 29.23 in 10.0 mi West 16.1 mph 26.5 mph N/A   Overcast
11:55 AM 44.6 °F 36.6 °F 21.2 °F 39% 29.24 in 10.0 mi West 19.6 mph 33.4 mph N/A   Overcast
12:15 PM 44.6 °F 37.2 °F 21.2 °F 39% 29.24 in 10.0 mi West 17.3 mph 26.5 mph N/A   Overcast
12:35 PM 42.8 °F 34.8 °F 19.4 °F 39% 29.25 in 10.0 mi West 17.3 mph 27.6 mph N/A   Overcast
12:55 PM 42.8 °F 35.8 °F 17.6 °F 36% 29.24 in 10.0 mi West 13.8 mph 19.6 mph N/A   Overcast
1:15 PM 42.8 °F 35.8 °F 17.6 °F 36% 29.24 in 10.0 mi West 13.8 mph 20.7 mph N/A   Overcast
1:35 PM 42.8 °F 34.3 °F 17.6 °F 36% 29.25 in 10.0 mi West 19.6 mph 27.6 mph N/A   Overcast
1:55 PM 42.8 °F 34.8 °F 17.6 °F 36% 29.25 in 10.0 mi West 17.3 mph 26.5 mph N/A   Overcast
2:15 PM 42.8 °F 34.3 °F 17.6 °F 36% 29.26 in 10.0 mi West 19.6 mph 26.5 mph N/A   Overcast
2:35 PM 41.0 °F 33.9 °F 19.4 °F 42% 29.27 in 10.0 mi West 12.7 mph 24.2 mph N/A   Overcast
2:55 PM 41.0 °F 33.1 °F 19.4 °F 42% 29.28 in 10.0 mi WSW 15.0 mph 21.9 mph N/A   Overcast
3:15 PM 39.2 °F 30.8 °F 17.6 °F 42% 29.29 in 10.0 mi West 15.0 mph 26.5 mph N/A   Overcast
3:35 PM 39.2 °F 31.2 °F 17.6 °F 42% 29.29 in 10.0 mi West 13.8 mph 25.3 mph N/A   Overcast
3:55 PM 39.2 °F 29.8 °F 17.6 °F 42% 29.30 in 10.0 mi West 18.4 mph 23.0 mph N/A   Overcast
4:15 PM 39.2 °F 31.2 °F 15.8 °F 39% 29.31 in 10.0 mi West 13.8 mph 28.8 mph N/A   Overcast
4:35 PM 39.2 °F 30.8 °F 14.0 °F 36% 29.31 in 10.0 mi West 15.0 mph 21.9 mph N/A   Overcast
4:55 PM 39.2 °F 32.0 °F 15.8 °F 39% 29.32 in 10.0 mi West 11.5 mph 25.3 mph N/A   Overcast
5:15 PM 39.2 °F 30.8 °F 17.6 °F 42% 29.32 in 10.0 mi WSW 15.0 mph 21.9 mph N/A   Overcast
5:35 PM 39.2 °F 32.0 °F 15.8 °F 39% 29.33 in 10.0 mi WSW 11.5 mph 18.4 mph N/A   Overcast
5:55 PM 39.2 °F 31.6 °F 15.8 °F 39% 29.34 in 10.0 mi WSW 12.7 mph 19.6 mph N/A   Overcast
6:15 PM 39.2 °F 31.2 °F 15.8 °F 39% 29.35 in 10.0 mi WSW 13.8 mph 20.7 mph N/A   Overcast
6:35 PM 39.2 °F 31.6 °F 14.0 °F 36% 29.35 in 10.0 mi West 12.7 mph 25.3 mph N/A   Overcast
6:55 PM 39.2 °F 32.0 °F 15.8 °F 39% 29.36 in 10.0 mi WSW 11.5 mph 21.9 mph N/A   Overcast
7:15 PM 39.2 °F 31.2 °F 12.2 °F 33% 29.36 in 10.0 mi WSW 13.8 mph 24.2 mph N/A   Overcast
7:35 PM 39.2 °F 32.0 °F 12.2 °F 33% 29.36 in 10.0 mi WSW 11.5 mph 19.6 mph N/A   Overcast
7:55 PM 39.2 °F 30.2 °F 12.2 °F 33% 29.36 in 10.0 mi WSW 17.3 mph 21.9 mph N/A   Overcast
8:15 PM 39.2 °F 32.0 °F 12.2 °F 33% 29.36 in 10.0 mi WSW 11.5 mph 21.9 mph N/A   Overcast
8:35 PM 39.2 °F 31.6 °F 12.2 °F 33% 29.37 in 10.0 mi WSW 12.7 mph 18.4 mph N/A   Overcast
8:55 PM 37.4 °F 28.5 °F 12.2 °F 36% 29.37 in 10.0 mi WSW 15.0 mph 21.9 mph N/A   Mostly Cloudy
9:15 PM 37.4 °F 28.2 °F 12.2 °F 36% 29.37 in 10.0 mi WSW 16.1 mph 25.3 mph N/A   Mostly Cloudy
9:35 PM 37.4 °F 29.3 °F 12.2 °F 36% 29.37 in 10.0 mi WSW 12.7 mph 18.4 mph N/A   Clear
9:55 PM 37.4 °F 29.8 °F 12.2 °F 36% 29.38 in 10.0 mi WSW 11.5 mph 17.3 mph N/A   Mostly Cloudy
10:15 PM 37.4 °F 29.8 °F 12.2 °F 36% 29.38 in 10.0 mi WSW 11.5 mph - N/A   Overcast
10:35 PM 37.4 °F 28.5 °F 15.8 °F 41% 29.38 in 10.0 mi WSW 15.0 mph 25.3 mph N/A   Overcast
10:55 PM 37.4 °F 29.8 °F 15.8 °F 41% 29.39 in 10.0 mi West 11.5 mph 16.1 mph N/A   Overcast
11:15 PM 35.6 °F 27.5 °F 15.8 °F 44% 29.39 in 10.0 mi WSW 11.5 mph 19.6 mph N/A   Mostly Cloudy
11:35 PM 35.6 °F 27.5 °F 15.8 °F 44% 29.38 in 10.0 mi WSW 11.5 mph 21.9 mph N/A   Mostly Cloudy
11:55 PM 35.6 °F 28.6 °F 15.8 °F 44% 29.38 in 10.0 mi WSW 9.2 mph - N/A   Mostly Cloudy